Starlink 4386

operational
NORAD ID: 53649 Int'l Des: 2022-105 Owner: SPXS Country: US Constellation: starlink
LEOCIRCULARRETROGRADESSO

Über Starlink 4386

Beschreibung wird geladen...

Live-Position

3D-Globus wird geladen...

Nächste Überflüge

Höhenverlauf

Altitude vs Time

uPlot chart will show altitude changes over time

Zweizeiliger Elementsatz

1 53649U 22105B 26036.14642798 -.00003891 00000-0 -26577-3 0 9998
2 53649 97.6016 279.1930 0002845 98.9289 261.2260 15.05620514188402
Epoch: 5. Feb. 2026 • Age: 5 hours

Aktueller Status

Höhe 552.0 km
Geschwindigkeit 7.59 km/s
Subsatellitenpunkt 28.07°N, 166.61°W
Startdatum 31. Aug. 2022
Alter 3.4 years
Typ internet

Technische Details

Klassifizierung Payload
Masse 300.00 kg
Trockenmasse 290.00 kg
Gesamtmasse 300.00 kg
Länge 0.20 m
Durchmesser 2.80 m
Spannweite 9.00 m
Form Box + pan
Hersteller SPXS
Bus-Typ Starlink
Phasenstatus In Orbit
Besitzer/Staat SPXS/US

Große Konstellationen

Loading constellations...